Flag for Germany Weather past 2 weeks in Nürtingen, Baden-Württemberg, Germany

Now
61 °F

Clear.


Feels Like: 61 °F
Forecast: 56 / 86 °F
Wind: 2 mph from North

Location: Stuttgart-Echterdingen

Current Time: Aug 2, 2015 at 3:13:05 AM

Latest Report: Aug 2, 2015 at 2:20 AM


Visibility: 10 mi

Pressure: 30.07 "Hg

Humidity: 83%

Dew point: 55 °F

Location of NürtingenLocation

Historic Weather in Nürtingen — Graph

°F

Nürtingen temperature yesterday

Maximum temperature yesterday: 73 °F (at 3:20 PM)
Minimum temperature yesterday: 57 °F (at 4:50 AM)
Average temperature yesterday: 65 °F

Past Weeks' High & Low Weather Summary

 TemperatureHumidityPressure
High95 °F (Jul 22, 2:20 PM)94% (Jul 23, 1:50 AM)30.12 "Hg (Jul 23, 1:50 AM)
Low46 °F (Jul 31, 5:50 AM)26% (Jul 22, 2:20 PM)29.71 "Hg (Jul 24, 7:20 PM)
Average69 °F62%29.95 "Hg
* Reported Jul 18 1:20 AM — Aug 2 1:50 AM, Nürtingen, Weather by CustomWeather, © 2015

Note: Actual official high and low records may vary slightly from our data, if they occured in-between our weather recording intervals... More about our weather records

Advertising

Nürtingen weather history for previous 24 hours

 ConditionsComfort  
Time TempWeatherWind HumidityBarometerVisibility
1:50 AM
Sun, Aug 2
61 °FClear.2 mph83%30.07 "Hg10 mi
1:20 AM63 °FClear.1 mph77%30.07 "Hg10 mi
12:50 AM63 °FClear.2 mph77%30.07 "Hg10 mi
12:20 AM64 °FClear.No wind78%30.07 "Hg10 mi
11:20 PM
Sat, Aug 1
66 °FClear.2 mph73%30.04 "Hg10 mi
10:50 PM66 °FClear.2 mph73%30.04 "Hg10 mi
10:20 PM66 °FClear.5 mph73%30.04 "Hg10 mi
9:50 PM68 °FLight rain. Clear.1 mph69%30.04 "HgN/A
9:20 PM68 °FSunny.1 mph73%30.01 "Hg10 mi
8:50 PM68 °FLight rain. Clear.1 mph69%30.01 "HgN/A
8:20 PM70 °FLight rain. Clear.2 mph60%30.01 "HgN/A
7:50 PM70 °FSunny.2 mph60%29.98 "Hg10 mi
7:20 PM72 °FLight rain. Partly sunny.2 mph53%29.98 "HgN/A
6:50 PM72 °FLight rain. Partly sunny.3 mph53%29.98 "HgN/A
6:20 PM72 °FPartly sunny.2 mph50%29.98 "HgN/A
5:50 PM72 °FPartly sunny.3 mph50%29.98 "HgN/A
5:20 PM72 °FPartly sunny.2 mph47%29.98 "HgN/A
4:50 PM73 °FPartly sunny.3 mph47%29.98 "HgN/A
4:20 PM72 °FPartly sunny.3 mph47%29.98 "HgN/A
3:50 PM72 °FBroken clouds.6 mph50%29.98 "HgN/A
3:20 PM73 °FBroken clouds.7 mph47%29.98 "HgN/A
2:50 PM72 °FPartly sunny.3 mph47%29.98 "HgN/A
2:20 PM72 °FPartly sunny.5 mph47%29.98 "HgN/A
1:50 PM72 °FPartly sunny.5 mph50%29.98 "HgN/A
1:20 PM72 °FSunny.6 mph53%29.98 "Hg10 mi
12:50 PM70 °FSunny.6 mph53%29.98 "Hg10 mi
12:20 PM68 °FPassing clouds.7 mph56%30.01 "HgN/A
11:50 AM68 °FPassing clouds.8 mph56%29.98 "HgN/A
11:20 AM66 °FPassing clouds.10 mph60%29.98 "HgN/A
10:50 AM64 °FSunny.5 mph60%29.98 "Hg10 mi
10:20 AM63 °FSunny.3 mph59%29.98 "Hg10 mi
9:50 AM61 °FSunny.3 mph59%29.98 "Hg10 mi
9:20 AM61 °FSunny.2 mph63%29.98 "Hg10 mi
8:50 AM61 °FSunny.1 mph59%29.98 "Hg10 mi
8:20 AM59 °FSunny.2 mph63%29.95 "Hg10 mi
7:50 AM59 °FSunny.No wind72%29.95 "Hg10 mi
7:20 AM59 °FSunny.1 mph72%29.92 "Hg10 mi
6:50 AM59 °FClear.2 mph63%29.92 "Hg10 mi
6:20 AM57 °FClear.1 mph63%29.92 "Hg10 mi
5:50 AM57 °FClear.3 mph67%29.92 "Hg10 mi
5:20 AM57 °FClear.1 mph63%29.92 "Hg10 mi
4:50 AM57 °FClear.1 mph63%29.92 "Hg10 mi
4:20 AM59 °FClear.1 mph59%29.92 "Hg10 mi
3:50 AM59 °FClear.3 mph59%29.92 "Hg10 mi
3:20 AM61 °FPassing clouds.3 mph55%29.92 "HgN/A
Weather by CustomWeather, © 2015

See weather overviewHow to use our weather pages